Погода в Волгоэлектросетьстрое

Россия / Липецкая область     52°32′27″N   40°03′53″E
темп.,
°C
ветер,
м/с
пор.,
м/с
влажн.,
%
обл.,
%
осадки,
мм/ч
давл.,
гПа
погр.,
м
20 апреля, вт
вт2000:00+8в6108091 0.0 1018669
03:00+8в61082100 0.0 1017572
06:00+7в61088100 0.0 1017624
09:00+6в71088100 0.2 1016623
12:00+6в61086100 0.1 1015656
15:00+6в71088100 1.1 1014635
18:00+5в71391100 0.4 1011666
21:00+4всв71393100 3.6 1008645
21 апреля, ср
ср2100:00+5св3696100 5.4 1003375
03:00+5ююв2499100 11.3 1002243
06:00+7юз4897100 6.4 1002413
09:00+5зсз2495100 7.6 1006267
12:00+5з4692100 0.4 1009482
15:00+8зюз5879100 0.4 1011941
18:00+8ююз4884100 0.1 1013433
21:00+6ю359372 0.2 101597
22 апреля, чт
чт2200:00+6ююз511875 0.2 1016291
03:00+6юз41088100 0.2 1017496
06:00+4юз379366 0.0 1018280
09:00+7зюз467366 0.0 1020812
12:00+11юз465721 0.0 10211364
15:00+13юз4652100 0.1 10201769
18:00+12ю476498 0.0 1020326
21:00+9ю497622 0.0 1021168
23 апреля, пт
пт2300:00+8ю388695 0.3 1021161
03:00+8ю348589 0.3 102171
06:00+8ю368463 0.0 102198
09:00+14ю476466 0.1 1021434
12:00+17ю5743100 0.7 10202522
15:00+16ю455596 0.7 10191222
18:00+14ююв5967100 1.0 1018487
21:00+11ююв6127866 1.7 1017396
24 апреля, сб
сб2400:00+9ююв512858 0.1 1016278
03:00+8ююв5129266 0.1 1014293
06:00+8ююв589494 0.3 1012222
09:00+11ю61080100 1.1 1011718
12:00+5зсз6990100 4.0 1012471
15:00+8з5771100 4.6 10131323
18:00+9зюз6966100 0.4 1013833
21:00+5зюз410770 0.5 1014227